Location: Santa Cristina
(46.5667°N, 11.7167°E)
Time: 18:29:57
(UTC+00:00)

Cosmos 1805 - Pass Details

Date: 21 April 2021
Orbit: 524 x 530 km, 82.5° (Epoch: 11 May)

Event Time Altitude Azimuth Distance (km) Brightness Sun altitude
Rises 02:35:28 0° 347° (NNW) 2,683 7.2 -15.9°
Reaches altitude 10° 02:37:39 10° 343° (NNW) 1,787 6.2 -15.6°
Maximum altitude 02:41:30 58° 265° (W) 622 3.3 -15.1°
Enters shadow 02:44:22 17° 189° (S) 1,389 5.0 -14.7°
